This is the latest recevied weather packets stored in our database for station/object HG5CJW-10. If no packets are shown the sender has not sent any weather packets the latest 10 day(s).
| Time | Temp. | Humidity | Pressure | Rain* | Wind** | Luminosity | Snow |
|---|---|---|---|---|---|---|---|
| 1787919882 | 26.11° C | 41% | 1037.4 hPa | - | - | - | - |
| 1787918082 | 25.56° C | 41% | 1037.8 hPa | - | - | - | - |
| 1787917182 | 25.56° C | 42% | 1037.7 hPa | - | - | - | - |
| 1787916282 | 25° C | 42% | 1037.8 hPa | - | - | - | - |
| 1787915382 | 25° C | 42% | 1038 hPa | - | - | - | - |
| 1787914482 | 24.44° C | 43% | 1038.2 hPa | - | - | - | - |
| 1787913582 | 23.89° C | 43% | 1038.5 hPa | - | - | - | - |
| 1787912682 | 23.89° C | 44% | 1038.4 hPa | - | - | - | - |
| 1787911782 | 23.33° C | 44% | 1038.7 hPa | - | - | - | - |
| 1787909982 | 22.78° C | 45% | 1038.9 hPa | - | - | - | - |
| 1787909081 | 22.22° C | 46% | 1039.2 hPa | - | - | - | - |
| 1787905476 | 20.56° C | 49% | 1039.4 hPa | - | - | - | - |
| 1787904576 | 20° C | 50% | 1039.3 hPa | - | - | - | - |
| 1787898282 | 18.33° C | 55% | 1039.9 hPa | - | - | - | - |
| 1787897376 | 18.33° C | 55% | 1039.7 hPa | - | - | - | - |
| 1787896476 | 18.33° C | 55% | 1039.7 hPa | - | - | - | - |
| 1787895575 | 18.33° C | 55% | 1039.8 hPa | - | - | - | - |
| 1787894675 | 18.33° C | 55% | - | - | - | - | - |
| 1787891970 | 18.89° C | 54% | 1039.7 hPa | - | - | - | - |
| 1787891070 | 18.89° C | 54% | 1039.6 hPa | - | - | - | - |
| 1787889270 | 19.44° C | 54% | 1039.2 hPa | - | - | - | - |
| 1787888370 | 19.44° C | 54% | 1039.3 hPa | - | - | - | - |
| 1787887470 | 19.44° C | 54% | 1039.1 hPa | - | - | - | - |
| 1787885669 | 20° C | 53% | 1039.1 hPa | - | - | - | - |
| 1787884769 | 20° C | 53% | 1039.1 hPa | - | - | - | - |
* Rain since midnight (hover to see other rain measurements)
** Current wind speed in m/s (hover to see current wind gust speed)